User: anonymous   Login
Location: Unspecified
(33.6682°S, 0.0000°E)
Time: 02:32:48
(UTC+00:00)
Language:

Vanguard 2 - Orbit

View from above orbital plane
View from above orbital plane
View from above satellite
View from above satellite

Ground track
Ground track

The orbit data is extracted from the following two-line orbital elements,

1    11U 59001A   19167.50617858 -.00000069  00000-0 -43454-4 0  9992
2    11  32.8744 353.0024 1468712 340.0462  14.8032 11.85620281573150
Epoch (UTC): 16 June 2019 12:08:53
Eccentricity: 0.1468712
inclination: 32.8744°
perigee height: 553 km
apogee height: 2939 km
right ascension of ascending node: 353.0024°
argument of perigee: 340.0462°
revolutions per day: 11.85620281
mean anomaly at epoch: 14.8032°
orbit number at epoch: 57315

The dashed part of the orbit path shows where the satellite is in the earth's shadow,  

DLR